Time,TemperatureF,DewpointF,PressureIn,WindDirection,WindDirectionDegrees,WindSpeedMPH,WindSpeedGustMPH,Humidity,HourlyPrecipIn,Conditions,Clouds,dailyrainin,SoftwareType,DateUTC
2013-03-11 01:00:00,49.5,40.8,29.98,NNE,22,0.0,-999.0,72,-99.99,,,0.00,Acu-Link.com,2013-03-11 03:00:00,
2013-03-11 01:15:00,48.9,41.3,29.98,NNW,337,0.0,-999.0,75,-99.99,,,0.00,Acu-Link.com,2013-03-11 03:15:00,
2013-03-11 01:30:00,48.2,41.3,29.98,NNW,337,0.0,-999.0,77,-99.99,,,0.00,Acu-Link.com,2013-03-11 03:30:00,
2013-03-11 01:45:00,48.0,41.8,29.98,SW,225,0.0,-999.0,79,-99.99,,,0.00,Acu-Link.com,2013-03-11 03:45:00,
2013-03-11 02:01:00,48.2,42.6,29.97,North,0,0.0,-999.0,81,-99.99,,,0.00,Acu-Link.com,2013-03-11 04:01:00,
2013-03-11 02:31:00,48.2,45.1,29.97,NE,45,0.0,-999.0,89,-99.99,,,0.00,Acu-Link.com,2013-03-11 04:31:00,
2013-03-11 03:01:00,51.4,50.9,29.97,South,180,2.2,-999.0,98,-99.99,,,0.00,Acu-Link.com,2013-03-11 05:01:00,
2013-03-11 03:17:00,52.2,51.3,29.97,ESE,112,0.0,-999.0,97,-99.99,,,0.00,Acu-Link.com,2013-03-11 05:17:00,
2013-03-11 03:32:00,52.3,51.8,29.97,ENE,67,0.0,-999.0,98,-99.99,,,0.00,Acu-Link.com,2013-03-11 05:32:00,
2013-03-11 03:47:00,52.9,52.3,29.97,ESE,112,1.1,-999.0,98,-99.99,,,0.00,Acu-Link.com,2013-03-11 05:47:00,
2013-03-11 04:02:00,52.7,52.2,29.96,SSE,157,1.1,-999.0,98,-99.99,,,0.00,Acu-Link.com,2013-03-11 06:02:00,
2013-03-11 04:17:00,52.2,51.6,29.95,SSE,157,1.1,-999.0,98,-99.99,,,0.00,Acu-Link.com,2013-03-11 06:17:00,
2013-03-11 04:33:00,52.0,51.4,29.95,East,90,1.6,-999.0,98,-99.99,,,0.00,Acu-Link.com,2013-03-11 06:33:00,
2013-03-11 04:48:00,51.6,51.1,29.95,SSE,157,1.1,-999.0,98,-99.99,,,0.00,Acu-Link.com,2013-03-11 06:48:00,
2013-03-11 05:03:00,51.8,51.3,29.95,SW,225,1.6,-999.0,98,-99.99,,,0.00,Acu-Link.com,2013-03-11 07:03:00,
2013-03-11 05:18:00,52.2,51.6,29.95,ESE,112,2.7,-999.0,98,-99.99,,,0.00,Acu-Link.com,2013-03-11 07:18:00,
2013-03-11 05:33:00,52.3,51.8,29.95,SE,135,2.7,-999.0,98,-99.99,,,0.00,Acu-Link.com,2013-03-11 07:33:00,
2013-03-11 05:49:00,52.3,51.8,29.93,South,180,2.2,-999.0,98,-99.99,,,0.00,Acu-Link.com,2013-03-11 07:49:00,
2013-03-11 06:04:00,52.3,51.8,29.92,South,180,2.2,-999.0,98,-99.99,,,0.00,Acu-Link.com,2013-03-11 08:04:00,
2013-03-11 06:19:00,52.3,51.8,29.91,South,180,2.7,-999.0,98,-99.99,,,0.00,Acu-Link.com,2013-03-11 08:19:00,
2013-03-11 06:34:00,52.2,51.6,29.91,SE,135,3.1,-999.0,98,-99.99,,,0.00,Acu-Link.com,2013-03-11 08:34:00,
2013-03-11 06:49:00,52.2,51.6,29.90,SSW,202,2.2,-999.0,98,-99.99,,,0.00,Acu-Link.com,2013-03-11 08:49:00,
2013-03-11 07:04:00,51.8,51.3,29.90,ESE,112,2.7,-999.0,98,-99.99,,,0.00,Acu-Link.com,2013-03-11 09:04:00,
2013-03-11 07:20:00,51.8,51.3,29.89,South,180,2.2,-999.0,98,-99.99,,,0.00,Acu-Link.com,2013-03-11 09:20:00,
2013-03-11 07:35:00,51.8,51.3,29.90,ENE,67,2.2,-999.0,98,-99.99,,,0.00,Acu-Link.com,2013-03-11 09:35:00,
2013-03-11 07:50:00,51.6,51.1,29.90,SSE,157,2.7,-999.0,98,-99.99,,,0.00,Acu-Link.com,2013-03-11 09:50:00,
2013-03-11 08:05:00,51.4,50.9,29.90,SSW,202,2.7,-999.0,98,-99.99,,,0.00,Acu-Link.com,2013-03-11 10:05:00,
2013-03-11 08:20:00,51.4,50.9,29.90,SE,135,2.7,-999.0,98,-99.99,,,0.00,Acu-Link.com,2013-03-11 10:20:00,
2013-03-11 08:36:00,51.4,50.9,29.91,ENE,67,2.7,-999.0,98,-99.99,,,0.00,Acu-Link.com,2013-03-11 10:36:00,
2013-03-11 08:51:00,51.4,50.9,29.91,SSE,157,1.6,-999.0,98,-99.99,,,0.00,Acu-Link.com,2013-03-11 10:51:00,
2013-03-11 09:06:00,51.4,50.9,29.91,SE,135,1.6,-999.0,98,-99.99,,,0.00,Acu-Link.com,2013-03-11 11:06:00,
2013-03-11 09:36:00,51.1,50.5,29.91,East,90,0.0,-999.0,98,-99.99,,,0.00,Acu-Link.com,2013-03-11 11:36:00,
2013-03-11 09:52:00,50.9,50.4,90.12,SE,135,2.7,-999.0,98,-99.99,,,0.00,Acu-Link.com,2013-03-11 11:52:00,
2013-03-11 10:07:00,50.9,50.4,29.90,SE,135,0.0,-999.0,98,-99.99,,,0.00,Acu-Link.com,2013-03-11 12:07:00,
2013-03-11 10:22:00,50.7,50.2,29.90,SSE,157,1.1,-999.0,98,-99.99,,,0.00,Acu-Link.com,2013-03-11 12:22:00,
2013-03-11 10:37:00,50.9,50.4,29.89,ENE,67,1.1,-999.0,98,-99.99,,,0.00,Acu-Link.com,2013-03-11 12:37:00,
2013-03-11 10:52:00,50.9,50.4,29.89,SSE,157,1.6,-999.0,98,-99.99,,,0.00,Acu-Link.com,2013-03-11 12:52:00,
2013-03-11 11:08:00,51.1,50.5,29.89,South,180,2.2,-999.0,98,-99.99,,,0.00,Acu-Link.com,2013-03-11 13:08:00,
2013-03-11 11:23:00,51.3,50.7,29.89,SE,135,2.7,-999.0,98,-99.99,,,0.00,Acu-Link.com,2013-03-11 13:23:00,
2013-03-11 11:38:00,51.4,50.9,29.89,SE,135,2.2,-999.0,98,-99.99,,,0.00,Acu-Link.com,2013-03-11 13:38:00,
2013-03-11 11:53:00,51.8,51.3,29.89,South,180,3.8,-999.0,98,-99.99,,,0.00,Acu-Link.com,2013-03-11 13:53:00,
2013-03-11 12:08:00,52.5,52.0,29.88,SSE,157,1.6,-999.0,98,-99.99,,,0.00,Acu-Link.com,2013-03-11 14:08:00,
2013-03-11 12:24:00,53.2,52.7,29.88,SE,135,4.3,-999.0,98,-99.99,,,0.00,Acu-Link.com,2013-03-11 14:24:00,
2013-03-11 12:39:00,53.6,53.0,29.86,ESE,112,3.8,-999.0,98,-99.99,,,0.00,Acu-Link.com,2013-03-11 14:39:00,
2013-03-11 12:54:00,53.8,53.2,29.86,SSE,157,2.2,-999.0,98,-99.99,,,0.00,Acu-Link.com,2013-03-11 14:54:00,
2013-03-11 13:09:00,53.6,53.0,29.87,SSE,157,3.1,-999.0,98,-99.99,,,0.00,Acu-Link.com,2013-03-11 15:09:00,
2013-03-11 13:24:00,53.6,53.0,29.85,ESE,112,5.8,-999.0,98,-99.99,,,0.00,Acu-Link.com,2013-03-11 15:24:00,
2013-03-11 13:40:00,53.6,53.0,29.84,SE,135,3.1,-999.0,98,-99.99,,,0.00,Acu-Link.com,2013-03-11 15:40:00,
2013-03-11 13:55:00,54.0,53.4,29.85,ESE,112,2.7,-999.0,98,-99.99,,,0.00,Acu-Link.com,2013-03-11 15:55:00,
2013-03-11 14:10:00,54.1,53.6,29.86,ESE,112,2.2,-999.0,98,-99.99,,,0.00,Acu-Link.com,2013-03-11 16:10:00,
2013-03-11 14:25:00,54.7,54.1,29.84,ESE,112,1.6,-999.0,98,-99.99,,,0.00,Acu-Link.com,2013-03-11 16:25:00,
2013-03-11 14:41:00,55.2,54.7,29.84,SSE,157,2.7,-999.0,98,-99.99,,,0.00,Acu-Link.com,2013-03-11 16:41:00,
2013-03-11 15:11:00,55.9,55.4,29.82,SSE,157,2.2,-999.0,98,-99.99,,,0.00,Acu-Link.com,2013-03-11 17:11:00,
2013-03-11 15:26:00,56.5,55.9,29.78,SE,135,3.8,-999.0,98,-99.99,,,0.00,Acu-Link.com,2013-03-11 17:26:00,
2013-03-11 15:41:00,57.4,56.8,29.78,SE,135,2.2,-999.0,98,-99.99,,,0.00,Acu-Link.com,2013-03-11 17:41:00,
2013-03-11 15:57:00,58.3,57.7,29.77,ESE,112,2.2,-999.0,98,-99.99,,,0.00,Acu-Link.com,2013-03-11 17:57:00,
2013-03-11 16:12:00,58.6,58.1,29.76,SW,225,1.6,-999.0,98,-99.99,,,0.00,Acu-Link.com,2013-03-11 18:12:00,
2013-03-11 16:27:00,58.6,58.1,29.73,South,180,3.1,-999.0,98,-99.99,,,0.00,Acu-Link.com,2013-03-11 18:27:00,
2013-03-11 16:42:00,58.3,57.7,29.76,South,180,5.1,-999.0,98,-99.99,,,0.00,Acu-Link.com,2013-03-11 18:42:00,
2013-03-11 17:13:00,58.8,58.3,29.70,East,90,3.1,-999.0,98,-99.99,,,0.00,Acu-Link.com,2013-03-11 19:13:00,
2013-03-11 17:28:00,59.2,58.6,29.70,SSE,157,2.2,-999.0,98,-99.99,,,0.00,Acu-Link.com,2013-03-11 19:28:00,
2013-03-11 17:43:00,59.2,58.6,29.71,SSE,157,2.7,-999.0,98,-99.99,,,0.00,Acu-Link.com,2013-03-11 19:43:00,
2013-03-11 17:58:00,58.3,57.7,29.70,SW,225,2.7,-999.0,98,-99.99,,,0.00,Acu-Link.com,2013-03-11 19:58:00,
2013-03-11 18:13:00,57.2,56.6,29.68,SSW,202,1.6,-999.0,98,-99.99,,,0.02,Acu-Link.com,2013-03-11 20:13:00,
2013-03-11 18:29:00,56.7,56.1,29.68,West,270,2.7,-999.0,98,-99.99,,,0.05,Acu-Link.com,2013-03-11 20:29:00,
2013-03-11 18:44:00,55.9,55.4,29.68,East,90,0.0,-999.0,98,-99.99,,,0.14,Acu-Link.com,2013-03-11 20:44:00,
2013-03-11 18:59:00,55.9,55.4,29.67,SE,135,1.6,-999.0,98,-99.99,,,0.20,Acu-Link.com,2013-03-11 20:59:00,
2013-03-11 19:14:00,55.8,55.2,29.66,ESE,112,2.7,-999.0,98,-99.99,,,0.20,Acu-Link.com,2013-03-11 21:14:00,
2013-03-11 19:30:00,55.9,55.4,29.66,South,180,2.2,-999.0,98,-99.99,,,0.22,Acu-Link.com,2013-03-11 21:30:00,
2013-03-11 19:45:00,55.9,55.4,29.65,NW,315,1.6,-999.0,98,-99.99,,,0.24,Acu-Link.com,2013-03-11 21:45:00,
2013-03-11 20:00:00,55.4,54.8,29.68,NW,315,0.0,-999.0,98,-99.99,,,0.56,Acu-Link.com,2013-03-11 22:00:00,
2013-03-11 20:15:00,55.0,54.5,29.70,South,180,0.0,-999.0,98,-99.99,,,0.59,Acu-Link.com,2013-03-11 22:15:00,
2013-03-11 20:30:00,55.0,54.5,29.71,ESE,112,1.1,-999.0,98,-99.99,,,0.65,Acu-Link.com,2013-03-11 22:30:00,
2013-03-11 20:46:00,54.9,54.3,29.70,ESE,112,0.0,-999.0,98,-99.99,,,0.71,Acu-Link.com,2013-03-11 22:46:00,
2013-03-11 21:16:00,54.3,53.8,29.70,South,180,0.0,-999.0,98,-99.99,,,0.89,Acu-Link.com,2013-03-11 23:16:00,
2013-03-11 21:31:00,54.1,53.6,29.71,East,90,0.0,-999.0,98,-99.99,,,0.93,Acu-Link.com,2013-03-11 23:31:00,
2013-03-11 21:46:00,54.1,53.6,29.70,East,90,0.0,-999.0,98,-99.99,,,0.98,Acu-Link.com,2013-03-11 23:46:00,
2013-03-11 22:02:00,54.0,53.4,29.68,SSE,157,0.0,-999.0,98,-99.99,,,1.07,Acu-Link.com,2013-03-12 00:02:00,
2013-03-11 22:17:00,54.0,53.4,29.69,ESE,112,0.0,-999.0,98,-99.99,,,1.11,Acu-Link.com,2013-03-12 00:17:00,
2013-03-11 22:32:00,53.8,53.2,29.69,ENE,67,0.0,-999.0,98,-99.99,,,1.17,Acu-Link.com,2013-03-12 00:32:00,
2013-03-11 22:47:00,53.8,53.2,29.69,ENE,67,1.1,-999.0,98,-99.99,,,1.25,Acu-Link.com,2013-03-12 00:47:00,
2013-03-11 23:02:00,53.8,53.2,29.68,NE,45,0.0,-999.0,98,-99.99,,,1.30,Acu-Link.com,2013-03-12 01:02:00,
2013-03-11 23:17:00,53.8,53.2,29.69,ENE,67,0.0,-999.0,98,-99.99,,,1.36,Acu-Link.com,2013-03-12 01:17:00,
2013-03-11 23:33:00,53.8,53.2,29.68,North,0,0.0,-999.0,98,-99.99,,,1.41,Acu-Link.com,2013-03-12 01:33:00,
2013-03-11 23:48:00,53.8,53.2,29.67,East,90,2.7,-999.0,98,-99.99,,,1.44,Acu-Link.com,2013-03-12 01:48:00,